Pingree, ID

8:35 PM MDT on September 02, 2015 (GMT -0600)
ARLFRD | | Change Station
CLOSE
Current Station
Personal Weather Station
Location: Aberdeen, ID
Elevation: 4392 ft
Nearby Weather Stations
Active Advisory: Fire Weather Warning

Elev 4392 ft 42.95 °N, 112.82 °W | Updated 25 minutes ago

Partly Cloudy
Partly Cloudy
75 °F
Feels Like 77 °F
N
1
Wind Variable Wind from WSW
Gusts 2.0 mph

Today
High -- | Low -- °F
--% Chance of Precip.
Yesterday
High -- | Low -- °F
Precip. -- in
6:55 AM 8:04 PM
Waning Gibbous, 75% visible
Pressure 29.68 in
Visibility 10.0 miles
Clouds Scattered Clouds 10000 ft
Heat Index 77 °F
Dew Point 42 °F
Humidity 31%
Rainfall in
Snow Depth Not available.
UV 0 out of 12
Pollen 9.40 out of 12
Air Quality Not available.
Flu Activity Not available.
METAR KPIH 030153Z 17008KT 10SM SCT100 23/02 A2983 RMK AO2 SLP048 T02330017
Pressure 29.68 in
Visibility 10.0 miles
Clouds Scattered Clouds 10000 ft
Heat Index 77 °F
Dew Point 42 °F
Humidity 31%
Rainfall in
Snow Depth Not available.
UV 0 out of 12
Pollen 9.40 out of 12
Air Quality Not available.
Flu Activity Not available.
METAR KPIH 030153Z 17008KT 10SM SCT100 23/02 A2983 RMK AO2 SLP048 T02330017

10-Day Weather Forecast

×

Almanac

Astronomy

Sep. 02, 2015 Rise Set
Actual Time
Civil Twilight
Nautical Twilight
Astronomical Twilight
Moon
Length of Visible Light
Length of Day
Tomorrow will be .
, % of the Moon is Illuminated

Today's Extremes

State Highs State Lows

Community

WunderPhotos

Upload Photos

1,851,879 photos uploaded!

WunderBlogs® & News

Nearby

Air Quality

  Air Quality AQ Index Pollutant
Not available.

Snow Depth

Station Depth Elevation

Earthquake Activity

City Distance Mag. Time & Date
Minimum magnitude displayed is 2.5.

Coastal Water Temperatures

Place Temperature

Stations

Nearby Weather Stations

Station Location Temp. Windchill Dew Point Humidity Wind Precip. Elev Updated Type
                   
Fire Weather Warning
Statement as of 2:06 PM MDT on September 02, 2015

... Red flag warning remains in effect until 9 PM MDT this evening
for gusty winds and low humidity for fire weather zone 410...

* affected area... fire weather zone 410.

* Wind... southwest winds 20 to 25 mph gusting to 30 mph.

* Humidity... 10 to 15 percent.

* Thunderstorms... none

* impacts... any fires that develop will likely spread rapidly.
Outdoor burning is not recommended.

Precautionary/preparedness actions...

A red flag warning means that critical fire weather conditions
are either occurring now... or will shortly. Fires may experience
rapid rates of growth. Please advise the appropriate officials or
fire crews in the field of the red flag warning for portions of
southeast Idaho.